(208942) = 2002 VT59

Discovered at Haleakala on 2002-11-03 by NEAT.

Orbit

Orbit type: Main Belt

Note: WebGL enabled browser required.

epoch2023-02-25.0
epoch JD2460000.5
perihelion date2020-09-30.06967
perihelion JD2459122.56967
argument of perihelion (°)206.90744
ascending node (°)155.21621
inclination (°)2.12574
eccentricity0.1075921
perihelion distance (AU)2.4668174
Tisserand w.r.t. Jupiter3.3
ΔV w.r.t. Earth (km/sec)9.9
semimajor axis (AU)2.7642262
mean anomaly (°)188.27971
mean daily motion (°/day)0.21445860
aphelion distance (AU)3.062
period (years)4.6
P-vector [x]0.99918264
P-vector [y]0.04041612
P-vector [z]-0.00077355
Q-vector [x]-0.03731336
Q-vector [y]0.92949803
Q-vector [z]0.36693476
absolute magnitude16.44
phase slope0.15
uncertainty0
referenceMPO 745323
observations used461
oppositions16
arc length (days)7497
first opposition used2002
last opposition used2023
residual rms (arc-secs)0.70
perturbers coarse indicatorM-v
perturbers precise indicator003Ek
first observation date used2002-11-03.0
last observation date used2023-05-14.0
computer nameMPCLINUX
JD of orbit computation2456847.862222
perihelion JD uncertainty (days)9.6200E-05
argument of perihelion uncertainty (°)1.1475E-04
ascending node uncertainty (°)1.1341E-04
inclination uncertainty (°)4.0325E-06
eccentricity uncertainty 4.2704E-08
perihelion distance uncertainty (AU)1.1674E-07
Minimum Orbit Intersection Distances (in AU)
for orbit epoch: 2460000.5, reference: E2023-JF5
Mercury2.09903
Venus1.74124
Earth1.46241
Mars1.06201
Jupiter2.36998
Saturn6.24257
Uranus15.389
Neptune27.3351

Observations

472 total observations over interval: 2002 11 03.57509 – 2023 05 14.298840
These data are available for download (format description).

Date (UT) J2000 RA J2000 Dec Magn Location Ref
2002 11 03.57509 03 18 40.23 +14 53 24.9 20.3   608 – Haleakala-AMOS MPS 66455
2002 11 03.58571 03 18 39.65 +14 53 23.1 20.5   608 – Haleakala-AMOS MPS 66455
2002 11 03.59642 03 18 39.08 +14 53 19.8 20.7   608 – Haleakala-AMOS MPS 66455
2002 11 05.24513 03 17 12.41 +14 46 51.0 20.2   644 – Palomar Mountain/NEAT MPS 66455
2002 11 05.30748 03 17 09.00 +14 46 36.8 19.9   644 – Palomar Mountain/NEAT MPS 66455
2002 11 05.37545 03 17 05.28 +14 46 21.0 19.7   644 – Palomar Mountain/NEAT MPS 66455
2002 11 11.25249 03 11 47.80 +14 23 22.1 19.9   704 – Lincoln Laboratory ETS, New Mexico MPS 66455
2002 11 11.26984 03 11 46.79 +14 23 18.1 20.0   704 – Lincoln Laboratory ETS, New Mexico MPS 66455
2002 11 11.28715 03 11 45.87 +14 23 13.7 19.8   704 – Lincoln Laboratory ETS, New Mexico MPS 66455
2002 11 11.30447 03 11 44.84 +14 23 10.2 19.8   704 – Lincoln Laboratory ETS, New Mexico MPS 66455
2002 11 12.35928 03 10 47.49 +14 19 06.7 19.8   644 – Palomar Mountain/NEAT MPS 66455
2002 11 12.38022 03 10 46.24 +14 19 02.5 19.0   644 – Palomar Mountain/NEAT MPS 66455
2002 11 12.40145 03 10 45.10 +14 18 57.0 19.9   644 – Palomar Mountain/NEAT MPS 66455
2002 12 05.22975 02 52 43.44 +13 08 43.4 20.3   704 – Lincoln Laboratory ETS, New Mexico MPS 68243
2002 12 05.24512 02 52 42.91 +13 08 40.2 20.5   704 – Lincoln Laboratory ETS, New Mexico MPS 68243
2002 12 05.26033 02 52 42.37 +13 08 38.7 20.3   704 – Lincoln Laboratory ETS, New Mexico MPS 68243
2002 12 05.27566 02 52 41.75 +13 08 36.9 20.1   704 – Lincoln Laboratory ETS, New Mexico MPS 68243
2005 04 16.42112 15 13 00.52 -14 57 33.4 21.3 V 691 – Steward Observatory, Kitt Peak-Spacewatch MPS 134823
2005 04 16.43967 15 12 59.72 -14 57 29.3 21.3 V 691 – Steward Observatory, Kitt Peak-Spacewatch MPS 134823
2005 04 16.45794 15 12 58.95 -14 57 26.0 21.1 V 691 – Steward Observatory, Kitt Peak-Spacewatch MPS 134823
2005 05 03.25829 14 59 55.69 -13 53 47.5 20.5 V 691 – Steward Observatory, Kitt Peak-Spacewatch MPS 133964
2005 05 03.27572 14 59 54.76 -13 53 43.3 20.4 V 691 – Steward Observatory, Kitt Peak-Spacewatch MPS 133964
2005 05 03.29301 14 59 53.85 -13 53 38.7 20.4 V 691 – Steward Observatory, Kitt Peak-Spacewatch MPS 133964
2005 05 08.22880 14 55 40.54 -13 33 58.8 20.6 V 691 – Steward Observatory, Kitt Peak-Spacewatch MPS 133964
2005 05 08.24634 14 55 39.61 -13 33 55.0 20.3 V 691 – Steward Observatory, Kitt Peak-Spacewatch MPS 133964
2005 05 08.26388 14 55 38.69 -13 33 50.8 20.2 V 691 – Steward Observatory, Kitt Peak-Spacewatch MPS 133964
2005 05 10.21834 14 53 58.31 -13 26 09.1 20.8 V 691 – Steward Observatory, Kitt Peak-Spacewatch MPS 133964
2005 05 10.23623 14 53 57.40 -13 26 05.1 20.6 V 691 – Steward Observatory, Kitt Peak-Spacewatch MPS 133964
2005 05 10.25410 14 53 56.43 -13 26 00.6 20.5 V 691 – Steward Observatory, Kitt Peak-Spacewatch MPS 133964
2005 05 11.33825 14 53 00.81 -13 21 47.5 18.6 R G96 – Mt. Lemmon Survey MPS 133964
2005 05 11.34499 14 53 00.45 -13 21 45.7 19.7 R G96 – Mt. Lemmon Survey MPS 133964
2005 05 11.35170 14 53 00.10 -13 21 44.7 19.1 R G96 – Mt. Lemmon Survey MPS 133964
2005 05 11.35843 14 52 59.73 -13 21 42.7 19.6 R G96 – Mt. Lemmon Survey MPS 133964
2006 08 28.22071 22 05 38.54 -11 27 50.9 18.9 R 699 – Lowell Observatory-LONEOS MPS 176975
2006 08 28.23736 22 05 37.75 -11 27 55.6 19.0 V 703 – Catalina Sky Survey MPS 176975
2006 08 28.23894 22 05 37.60 -11 27 57.0   699 – Lowell Observatory-LONEOS MPS 176975
2006 08 28.24620 22 05 37.42 -11 27 59.0 19.4 V 703 – Catalina Sky Survey MPS 176975
2006 08 28.25505 22 05 36.92 -11 28 02.3 19.1 V 703 – Catalina Sky Survey MPS 176975
2006 08 28.25722 22 05 36.74 -11 28 03.9   699 – Lowell Observatory-LONEOS MPS 176975
2006 08 28.26387 22 05 36.45 -11 28 04.6 18.8 V 703 – Catalina Sky Survey MPS 176975
2006 08 28.27550 22 05 35.88 -11 28 10.0   699 – Lowell Observatory-LONEOS MPS 176975
2006 08 28.30243 22 05 34.51 -11 28 18.5 18.7 V 703 – Catalina Sky Survey MPS 176975
2006 08 28.31146 22 05 34.04 -11 28 21.9 18.9 V 703 – Catalina Sky Survey MPS 176975
2006 08 28.32056 22 05 33.64 -11 28 25.0 18.7 V 703 – Catalina Sky Survey MPS 176975
2006 09 30.17341 21 47 06.72 -13 38 38.6 20.2 V G96 – Mt. Lemmon Survey MPS 182569
2006 09 30.18125 21 47 06.61 -13 38 39.4 20.5 V G96 – Mt. Lemmon Survey MPS 182569
2006 09 30.18915 21 47 06.50 -13 38 40.2 20.2 V G96 – Mt. Lemmon Survey MPS 182569
2006 09 30.19711 21 47 06.36 -13 38 41.0 20.1 V G96 – Mt. Lemmon Survey MPS 182569
2007 12 16.30387 06 27 43.52 +20 20 10.5 20.1 V 691 – Steward Observatory, Kitt Peak-Spacewatch MPS 231746
2007 12 16.32494 06 27 42.28 +20 20 11.2 20.1 V 691 – Steward Observatory, Kitt Peak-Spacewatch MPS 231746
2007 12 16.34949 06 27 40.83 +20 20 12.8 19.9 V 691 – Steward Observatory, Kitt Peak-Spacewatch MPS 231746
2007 12 20.29947 06 23 53.83 +20 23 13.0 19.6 V 691 – Steward Observatory, Kitt Peak-Spacewatch MPS 231746
2007 12 20.31713 06 23 52.76 +20 23 12.1 20.0 V 691 – Steward Observatory, Kitt Peak-Spacewatch MPS 231746
2007 12 20.33480 06 23 51.70 +20 23 12.8 19.8 V 691 – Steward Observatory, Kitt Peak-Spacewatch MPS 231746
2009 02 19.36101 12 17 50.84 -00 53 38.6 21.1 V 691 – Steward Observatory, Kitt Peak-Spacewatch MPS 276464
2009 02 19.37656 12 17 50.32 -00 53 35.2 21.3 V 691 – Steward Observatory, Kitt Peak-Spacewatch MPS 276464
2009 02 19.39211 12 17 49.84 -00 53 31.2 21.0 V 691 – Steward Observatory, Kitt Peak-Spacewatch MPS 276464
2009 02 27.36019 12 13 22.63 -00 18 25.0 20.7 V 691 – Steward Observatory, Kitt Peak-Spacewatch MPS 278588
2009 02 27.37625 12 13 22.00 -00 18 20.7 20.8 V 691 – Steward Observatory, Kitt Peak-Spacewatch MPS 278588
2009 02 27.39230 12 13 21.37 -00 18 15.7 20.7 V 691 – Steward Observatory, Kitt Peak-Spacewatch MPS 278588
2009 03 03.33406 12 10 46.16 +00 01 30.7 21.0 V 691 – Steward Observatory, Kitt Peak-Spacewatch MPS 278588
2009 03 03.35171 12 10 45.43 +00 01 36.2 20.9 V 691 – Steward Observatory, Kitt Peak-Spacewatch MPS 278588
2009 03 03.36935 12 10 44.63 +00 01 42.2 20.8 V 691 – Steward Observatory, Kitt Peak-Spacewatch MPS 278588
2009 03 17.20800 12 00 20.44 +01 18 46.0 20.1 V 691 – Steward Observatory, Kitt Peak-Spacewatch MPS 281170
2009 03 17.22909 12 00 19.40 +01 18 53.9 20.3 V 691 – Steward Observatory, Kitt Peak-Spacewatch MPS 281170
2009 03 17.24671 12 00 18.51 +01 19 00.0 20.2 V 691 – Steward Observatory, Kitt Peak-Spacewatch MPS 281170
2009 04 03.25882 11 47 04.84 +02 53 23.4 20.7 V G96 – Mt. Lemmon Survey MPS 283554
2009 04 03.26744 11 47 04.45 +02 53 26.1 20.3 V G96 – Mt. Lemmon Survey MPS 283554
2009 04 03.27594 11 47 04.09 +02 53 29.6 21.0 V G96 – Mt. Lemmon Survey MPS 283554
2009 04 03.28446 11 47 03.69 +02 53 31.6 20.3 V G96 – Mt. Lemmon Survey MPS 283554
2009 04 20.29829 11 36 55.13 +04 03 37.3   291 – LPL/Spacewatch II MPS 285594
2009 04 20.30523 11 36 54.96 +04 03 38.6   291 – LPL/Spacewatch II MPS 285594
2009 04 20.31218 11 36 54.74 +04 03 39.5   291 – LPL/Spacewatch II MPS 285594
2009 04 26.20616 11 34 36.44 +04 19 16.2 21.3 V G96 – Mt. Lemmon Survey MPS 286385
2009 04 26.21166 11 34 36.37 +04 19 17.2 21.3 V G96 – Mt. Lemmon Survey MPS 286385
2009 04 26.22220 11 34 36.12 +04 19 18.6 21.3 V G96 – Mt. Lemmon Survey MPS 286385
2009 04 26.22760 11 34 35.97 +04 19 19.4 20.7 V G96 – Mt. Lemmon Survey MPS 286385
2009 05 01.19327 11 33 13.03 +04 28 34.6 21.1 V G96 – Mt. Lemmon Survey MPS 286385
2009 05 01.20409 11 33 12.88 +04 28 35.6 21.0 V G96 – Mt. Lemmon Survey MPS 286385
2009 05 01.21507 11 33 12.74 +04 28 36.2 20.8 V G96 – Mt. Lemmon Survey MPS 286385
2009 05 01.22596 11 33 12.60 +04 28 37.6 21.1 V G96 – Mt. Lemmon Survey MPS 286385
2010 06 04.473959 17 35 55.340 -20 07 30.15 20.10 i F51 – Pan-STARRS 1, Haleakala MPS 338812
2010 06 04.485440 17 35 54.712 -20 07 29.82 20.08 i F51 – Pan-STARRS 1, Haleakala MPS 338812
2011 09 23.46605 01 53 50.856 +09 13 17.79 20.4 w F51 – Pan-STARRS 1, Haleakala MPS 394024
2011 09 23.48144 01 53 50.354 +09 13 14.03 20.4 w F51 – Pan-STARRS 1, Haleakala MPS 394024
2011 09 23.49688 01 53 49.859 +09 13 10.31 20.4 w F51 – Pan-STARRS 1, Haleakala MPS 394024
2011 10 01.53532 01 49 03.891 +08 36 42.68 20.1 g F51 – Pan-STARRS 1, Haleakala MPS 394911
